Terug naar catalogus

SL-12 R/B(2)

ActiefGEO
NORAD 19776·ROCKET BODY·🇷🇺 Russia

Gelanceerd Jan 26, 1989 vanaf Baikonur Cosmodrome

Loading…

TLE

VersSource: Space-Track

Epoch: Sep 14, 2026, 17:34 UTC

1 19776U 89004F   26257.73246074 -.00000029  00000-0  00000-0 0  9998
2 19776  12.7151 334.0321 0021548 135.5380 222.7844  0.97992466119260

Volg SL-12 R/B(2) in realtime met AllMySat

Download on the App Store